Location: Dal�� Lhota
(48.7500°N, 14.0167°E)
Time: 23:21:21
(UTC+00:00)

SPOT 1/Viking Rocket - Pass Details

Date: 24 September 2020
Orbit: 777 x 794 km, 98.5° (Epoch: 25 October)

Event Time Altitude Azimuth Distance (km) Brightness Sun altitude
Exits shadow 19:48:44 46° 29° (NNE) 1,056 4.1 -27.6°
Drops below altitude 10° 19:52:42 10° 354° (N) 2,347 6.5 -28.1°
Sets 19:55:03 0° 350° (N) 3,277 7.4 -28.5°
